User: anonymous   Login
Location: Unspecified
(0.0000°N, 0.0000°E)
Time: 04:42:02
(UTC+00:00)
Language:

CANX 3A (UNIBRITE) - Orbit

View from above orbital plane
View from above orbital plane
View from above satellite
View from above satellite

Ground track
Ground track

The orbit data is extracted from the following two-line orbital elements,

1 39092U 13009G   17018.11283196  .00000007  00000-0  17826-4 0  9999
2 39092  98.5616 223.9823 0009956  32.2442 327.9350 14.34884275203959
Epoch (UTC): 18 January 2017 02:42:28
Eccentricity: 0.0009956
inclination: 98.5616°
perigee height: 768 km
apogee height: 782 km
right ascension of ascending node: 223.9823°
argument of perigee: 32.2442°
revolutions per day: 14.34884275
mean anomaly at epoch: 327.9350°
orbit number at epoch: 20395

The dashed part of the orbit path shows where the satellite is in the earth's shadow,  

DLR